Other Surface Observations
Issued by NWS

Home | Current Version | Previous Version | Text Only | Print | Product List | Glossary On
Versions: 1 2 3 4 5 6 7 8 9 10 11 12 13 14 15 16 17 18 19 20 21 22 23 24 25 26 27 28 29 30 31 32 33 34 35 36 37 38 39 40 41 42 43 44 45 46 47 48 49 50
978
SXUS52 KTAE 181805
OSOTAE
OSOTAE
North Florida/South Alabama/Southwest Georgia Weather Roundup
National Weather Service Tallahassee Florida
100 PM EST THU JAN 18 2018

Note: "fair" indicates few or no clouds below 12,000 feet with no
significant weather and/or obstructions to visibility.

!FLZ017-115-028-034-025-181900
...North Florida...

CITY           SKY/WX    TMP DP  RH WIND       PRES   REMARKS
TALLAHASSEE    FAIR      43  12  28 NE7       30.42F WCI  39
APALACHICOLA   FAIR      45  15  30 NW3       30.42F
PERRY          FAIR      44  12  27 N3        30.42F
CROSS CITY     FAIR      42  15  33 N8        30.45F WCI  38
JACKSONVILLE   FAIR      46  12  25 N7        30.38F WCI  42
$$

!FLZ112-006-005-002-011-181900
...Florida Panhandle...

CITY           SKY/WX    TMP DP  RH WIND       PRES   REMARKS
MARIANNA       FAIR      42  12  29 VRB6      30.44F WCI  38
BONIFAY        NOT AVBL
PANAMA CITY NW FAIR      44  12  27 N8        30.43F WCI  39
TYNDALL AFB    FAIR      44  12  27 NE7       30.43F WCI  40
TYND DRONE APT FAIR      44  13  28 N8        30.43F WCI  39
DE FUNIAK SPR  FAIR      38  10  31 NE5       30.45F WCI  35
EGLIN AFB      SUNNY     42   9  25 N13       30.45F WCI  35
DESTIN         FAIR      44  11  26 N10       30.46F WCI  39
HURLBURT       SUNNY     42  12  29 N8        30.45F WCI  37
CRESTVIEW      FAIR      41  10  28 N8        30.48F WCI  36
PENSACOLA      FAIR      41  13  31 N12       30.49F WCI  34
$$

!ALZ063-066-181900
...South Alabama...

CITY           SKY/WX    TMP DP  RH WIND       PRES   REMARKS
DOTHAN         FAIR      42  10  27 NW6       30.47F WCI  38
OZARK CAIRNS   FAIR      41   9  26 N8        30.44F WCI  36
FT RUCKER HELI FAIR      40  10  28 N5        30.44F WCI  37
RUCKER HELI 3    N/A     38   9  29 N3        30.44F
RUCKER HELI 2  FAIR      41   9  26 NW3       30.43F
FLORALA APT    FAIR      41  10  28 N9        30.47F WCI  35
ANDALUSIA      FAIR      42  10  27 VRB5      30.46F WCI  39
TROY           FAIR      37  13  37 VRB3      30.47F
EUFALA         FAIR      40  12  32 VRB6      30.44F WCI  36
MOBILE         FAIR      38  10  31 N8        30.52F WCI  32
$$

!GAZ120>161-181900
...Southwest and South Central Georgia...

CITY           SKY/WX    TMP DP  RH WIND       PRES   REMARKS
THOMASVILLE    FAIR      41  14  33 NW5       30.42F WCI  38
BAINBRIDGE     FAIR      41  19  42 CALM      30.44F
MOODY AFB      FAIR      43  12  28 NE7       30.38F WCI  39
VALDOSTA       FAIR      42  13  30 NE7       30.40F WCI  38
MOULTRIE       FAIR      39  14  35 NW3       30.41F
BLAKELY          N/A     43  10  26 CALM      30.44
ALBANY         FAIR      42  12  29 NW5       30.44F WCI  39
TIFTON         FAIR      39  14  35 CALM      30.40F
FITZGERALD     FAIR      42  13  30 NW5       30.42F WCI  39
CORDELE        FAIR      42  10  26 N7        30.43F WCI  38
AMERICUS       FAIR      39   0  19 N6        30.42F WCI  35
HOMERVILLE     FAIR      43  14  31 N5        30.41F WCI  40
$$

!GMZ750-755-770-775-181900
...Coastal and Buoy Obs...

STATION/POSITION TIME  TEMP    WIND        PRES    VSBY  WAVE
                       AIR SEA DIR/SP/G                  HT/PER
                 (UTC) (F)     (DEG/KT/KT) (MB)    (MI)  (FT/S)
KEATON BEACH     1800   42     360/  4/  7 1029.1F
CEDAR KEY        1700   37      70/  7/  9 1030.4F
C TOWER          1800   36      40/  6/  9 1030.9F
APALACHICOLA BUO NOT AVBL
PANAMA CITY BUOY 1650   45 69   30/ 14/ 16 1031.1          4/ 5
MOBILE BUOY      1750   43 69   30/ 12/ 17 1033.0F         4/ 6
ORANGE BCH AL BU NOT AVBL
$$




USA.gov is the U.S. government's official web portal to all federal, state and local government web resources and services.